CICERO 7

Last updated on Tue Nov 14 2023 00:03:38 GMT+0000 (Greenwich Mean Time)

1 43143U 18004AJ 23316.95209561 .02592973 24144-5 77798-3 0 9998 2 43143 97.3097 50.6433 0009283 280.2242 79.8004 16.26944402326103
UTC large
Height (km)
Speed (km/s)
/
Latitude / Longitude
Inclination (degrees)
Orbital Period (minutes)
Azimuth
Elevation
Range (km)
Doppler Factor

Next 0 passes for location: London (51.5072 / 0.1276)

Sorry there are no passes over London.